Location: ???????
(55.9142°N, 37.8256°E)
Time: 03:50:33
(UTC+00:00)

USA 215 - Pass Details

Date: 14 April 2024
Orbit: 1100 x 1107 km, 123.0° (Epoch: 22 April)

Event Time Altitude Azimuth Distance (km) Brightness Sun altitude
Rises 01:35:13 0° 90° (E) 3,925 7.4 -7.2°
Reaches altitude 10° 01:37:42 10° 90° (E) 2,967 6.7 -6.9°
Maximum altitude 01:44:16 82° 4° (N) 1,118 3.4 -6.1°
Drops below altitude 10° 01:50:49 10° 278° (W) 2,963 5.0 -5.3°
Sets 01:53:18 0° 278° (W) 3,921 5.6 -5.0°
